OINZ

Details ICAO OINZ (SRY)
Name SARI DASHT E NAZ
Region Iran
Timezone Asia/Tehran (UTC+4.5)
Plans Departing 12
Arriving 17
Stats Elevation 35 ft / 11 m (AMSL)
Location 36.644600° 53.188683°
Runways 1
Magnetic Variation 4.911° E
Sunrise 2018-05-28 01:13:23 UTC / 2018-05-28 05:43:23 Local
Sunset 2018-05-28 15:38:30 UTC / 2018-05-28 20:08:30 Local
Advertisement - Login to hide

Runways

ID Width Length Bearing (true) Bearing (mag) Surface Threshold Offset Overrun Length
16 148 ft / 45 m 8,694 ft / 2,650 m 160.89° 155.98° Asphalt 0 ft / 0 m 175 ft / 53 m
34 148 ft / 45 m 8,694 ft / 2,650 m 340.89° 335.98° Asphalt 1,687 ft / 514 m 159 ft / 48 m

Map

Weather


0- 5 10 15 20 25 30 35+ Temperature / ° C

Clouds and Precipitation
Forecast for 2018-05-28 00:00 UTC. Updated 19 minutes ago

Ground ~20,000 ft ~40,000 ft Winds

METAR

OINZ 272300Z 20004KT CAVOK 17/16 Q1023

TAF

Not found

Frequencies

Recorded 126.85 MHz DASHT E NAZ INFO
Tower 121.70 MHz TWR
Tower 119.60 MHz TWR
Tower 118.45 MHz TWR
Warning: Do not use this data for real-world aviation or navigation. No guarantee of current accuracy is given.